This is the latest recevied weather packets stored in our database for station/object DK6GC-10. If no packets are shown the sender has not sent any weather packets the latest 10 day(s).
| Time | Temp. | Humidity | Pressure | Rain* | Wind** | Luminosity | Snow |
|---|---|---|---|---|---|---|---|
| 1788599724 | 21.11° C | 70% | 1024.8 hPa | - | - | - | - |
| 1788598825 | 23.33° C | 65% | 1024.7 hPa | - | - | - | - |
| 1788597924 | 22.78° C | 72% | 1024.5 hPa | - | - | - | - |
| 1788597023 | 21.11° C | 79% | 1024.3 hPa | - | - | - | - |
| 1788596123 | 20.56° C | 78% | 1024.2 hPa | - | - | - | - |
| 1788595220 | 20.56° C | 81% | 1024.1 hPa | - | - | - | - |
| 1788594320 | 20° C | 83% | 1023.9 hPa | - | - | - | - |
| 1788593420 | 20° C | 86% | 1023.8 hPa | - | - | - | - |
| 1788592520 | 20° C | 84% | 1023.7 hPa | - | - | - | - |
| 1788591620 | 20° C | 83% | 1023.5 hPa | - | - | - | - |
| 1788590719 | 19.44° C | 85% | 1023.4 hPa | - | - | - | - |
| 1788589819 | 18.33° C | 96% | 1023.2 hPa | - | - | - | - |
| 1788588918 | 17.78° C | 94% | 1023 hPa | - | - | - | - |
| 1788588022 | 17.78° C | 97% | 1022.6 hPa | - | - | - | - |
| 1788587122 | 17.22° C | 98% | 1022.4 hPa | - | - | - | - |
| 1788586222 | 17.22° C | 97% | 1022.3 hPa | - | - | - | - |
| 1788585322 | 16.67° C | 96% | 1022.2 hPa | - | - | - | - |
| 1788584422 | 16.11° C | 94% | 1021.9 hPa | - | - | - | - |
| 1788583521 | 16.11° C | 94% | 1021.8 hPa | - | - | - | - |
| 1788582621 | 15.56° C | 92% | 1021.6 hPa | - | - | - | - |
| 1788581721 | 15.56° C | 94% | 1021.5 hPa | - | - | - | - |
| 1788580820 | 15.56° C | 92% | 1021.3 hPa | - | - | - | - |
| 1788579920 | 15.56° C | 91% | 1021.3 hPa | - | - | - | - |
| 1788579019 | 15.56° C | 89% | 1021.2 hPa | - | - | - | - |
| 1788578119 | 16.11° C | 86% | 1020.9 hPa | - | - | - | - |
* Rain since midnight (hover to see other rain measurements)
** Current wind speed in m/s (hover to see current wind gust speed)